GALAXY 35

导读

GALAXY 35是由美国Maxar公司建造、Intelsat运营的地球同步通信卫星,于2022年12月13日,由欧空局阿里安-5火箭在法属圭亚那库鲁航天中心发射升空,同箭发射了Galaxy 36与MTG-I1气象卫星。它定轨地球同步轨道,主要服务北美地区,为广播公司提供传输链路,支持体育赛事直播、娱乐节目与突发新闻报道,接替退役的Galaxy 3C老卫星,保障北美地区稳定的媒体通信服务。

基本信息
目录编号:
54741
目录名称:
GALAXY 35
国际标识:
2022-170A
轨道中心:
EARTH
卫星名称:
GALAXY 35
卫星全名:
--
卫星状态:
在轨 (已飞行1277 天)
发射日期:
2022-12-13 UTC
国别 :
美国 (US)
星等 :
--
轨道信息
数据来源 国际轨道数据 AOE轨道数据
星历时间 2026-06-12T13:44:08+0800
15小时前
查看轨道信息
2026-06-12T15:00:00+0800
14小时前
查看轨道信息
半长轴 42165.065km 42164.981km
偏心率 0.0001865 0.0001832
轨道倾角 0.016° 0.013°
近地点辐角 141.098° 135.042°
升交点赤经 302.553° 308.694°
平近点角 169.857° 188.790°
近地点 35779.064km 35779.119km
远地点 35794.792km 35794.569km
周期 1436.114分钟 1436.110分钟
每日圈数 1.002706 1.002709
详细信息
使用方式:
暂无
2D轨道图
3D轨道图
轨道高度分析图
轨道倾角分析图
轨道综合分析图
查看轨道综合分析图